Accueil
METAR-TAF:

METAR-TAF

Aéroports :

Pembrey, Pays de Galles

latitude: 51-43N, longitude: 004-22W, altitude: 3 m

Observation

Le bulletin a été fait il y a 1 heure et 14 minutes, à 10:50 UTC
Vent 11 kt de sud
Température 17°C
Humidité 82%
Pression 1006 hPa
Visibilité 10 km ou plus
Nuages épars à une hauteur de 1900 ft
Nuages fragmentés à une hauteur de 9000 ft
pluie faible

METAR: EGOP 271050Z 19011KT 9999 -RA SCT019 BKN090 17/14 Q1006 WHT

Heure: 13:04 (12:04 UTC)


TAF: absent

Observations et prévisions météorologiques de plus de 4000 aéroports (messages METAR et TAF).

Les stations disponibles sont représentées par des disques jaunes et rouges sur la carte.

Passer la souris dessus pour voir le nom de la station.

Cliquer dessus pour voir les observations et prévisions météorologiques.

Pour changer de carte: cliquez sur les boutons verts avec une croix noire pour zoomer, sur le bouton vert avec un tiret pour effectuer un zoom arrière, ou sur les flèches vertes pour les cartes adjacentes.


METAR-TAF: